Simultaneous Nadir Overpasses (SNOs) Predictions

Prediction of SNOs between AQUA and TERRA Satellite Orbit:

Table of predicted SNOs for the next 14.0 days since TLE Epoch: 12/23/2023
Index Date (AQUA) Time (AQUA) Lat,Lon (AQUA) SZA (AQUA ) Date (TERRA) Time (TERRA) Lat,Lon (TERRA) SZA (TERRA ) Distance(km) Time Diff (sec)
1 12/23/2023 03:58:40 74.16, 119.28 97.51 12/23/2023 03:59:21 74.14, 119.17 97.49 3.76 41
2 12/23/2023 04:48:03 -74.18, -73.11 82.48 12/23/2023 04:48:42 -74.19, -73.05 82.47 2.59 39
3 12/23/2023 05:37:27 74.18, 94.55 97.52 12/23/2023 05:38:04 74.16, 94.54 97.51 1.60 37
4 12/23/2023 06:26:49 -74.14, -97.72 82.52 12/23/2023 06:27:26 -74.16, -97.80 82.50 3.07 37
5 12/23/2023 07:16:14 74.19, 69.81 97.54 12/23/2023 07:16:47 74.18, 69.90 97.53 2.95 33
6 12/23/2023 08:05:36 -74.16,-122.46 82.50 12/23/2023 08:06:09 -74.18,-122.43 82.48 2.59 33
7 12/23/2023 08:55:00 74.16, 45.20 97.50 12/23/2023 08:55:31 74.15, 45.15 97.49 1.75 31
8 12/23/2023 09:44:23 -74.18,-147.19 82.48 12/23/2023 09:44:53 -74.15,-147.19 82.51 2.80 30
9 12/23/2023 10:33:47 74.17, 20.47 97.52 12/23/2023 10:34:14 74.17, 20.52 97.51 1.40 27
10 12/23/2023 11:23:09 -74.14,-171.80 82.52 12/23/2023 11:23:36 -74.17,-171.82 82.49 3.42 27
11 12/23/2023 12:12:33 74.14, -4.14 97.48 12/23/2023 12:12:58 74.14, -4.24 97.48 2.93 25
12 12/23/2023 13:01:56 -74.16, 163.47 82.50 12/23/2023 13:02:20 -74.14, 163.43 82.52 2.38 24
13 12/23/2023 13:51:20 74.15, -28.87 97.50 12/23/2023 13:51:41 74.16, -28.87 97.50 0.46 21
14 12/23/2023 14:40:43 -74.17, 138.74 82.49 12/23/2023 14:41:03 -74.16, 138.79 82.50 2.25 20
15 12/23/2023 15:30:07 74.17, -53.61 97.51 12/23/2023 15:30:24 74.18, -53.51 97.52 3.09 17
16 12/23/2023 16:19:29 -74.14, 114.12 82.52 12/23/2023 16:19:47 -74.13, 114.04 82.53 2.91 18
17 12/23/2023 17:08:53 74.14, -78.22 97.48 12/23/2023 17:09:08 74.15, -78.26 97.49 1.79 15
18 12/23/2023 17:58:16 -74.16, 89.39 82.51 12/23/2023 17:58:30 -74.15, 89.40 82.51 0.84 14
19 12/23/2023 18:47:40 74.15,-102.95 97.49 12/23/2023 18:47:51 74.17,-102.90 97.51 2.28 11
20 12/23/2023 19:37:03 -74.17, 64.66 82.49 12/23/2023 19:37:13 -74.17, 64.77 82.50 3.26 10
21 12/23/2023 20:26:26 74.12,-127.56 97.46 12/23/2023 20:26:35 74.14,-127.65 97.48 3.28 9
22 12/23/2023 21:15:49 -74.14, 40.05 82.53 12/23/2023 21:15:57 -74.14, 40.01 82.53 1.03 8
23 12/23/2023 22:05:13 74.14,-152.30 97.47 12/23/2023 22:05:18 74.16,-152.29 97.50 2.31 5
24 12/23/2023 22:54:36 -74.16, 15.31 82.51 12/23/2023 22:54:40 -74.16, 15.38 82.51 1.95 4
25 12/23/2023 23:44:00 74.15,-177.03 97.49 12/23/2023 23:44:02 74.12,-177.04 97.46 3.15 2
26 12/24/2023 00:33:22 -74.12, -9.30 82.55 12/24/2023 00:33:24 -74.13, -9.38 82.54 2.43 2
27 12/24/2023 01:22:46 74.12, 158.36 97.46 12/24/2023 01:22:45 74.14, 158.33 97.48 3.13 1
28 12/24/2023 02:12:09 -74.14, -34.03 82.53 12/24/2023 02:12:07 -74.15, -34.01 82.52 1.18 2
29 12/24/2023 03:01:33 74.14, 133.63 97.47 12/24/2023 03:01:29 74.11, 133.57 97.45 2.98 4
30 12/24/2023 03:50:56 -74.16, -58.76 82.51 12/24/2023 03:50:50 -74.17, -58.65 82.50 3.81 6
31 12/24/2023 04:40:20 74.15, 108.89 97.49 12/24/2023 04:40:12 74.13, 108.94 97.47 2.52 8
32 12/24/2023 05:29:42 -74.12, -83.38 82.55 12/24/2023 05:29:34 -74.14, -83.40 82.54 1.80 8
33 12/24/2023 06:19:06 74.12, 84.28 97.45 12/24/2023 06:18:56 74.10, 84.18 97.44 3.50 10
34 12/24/2023 07:08:29 -74.14,-108.11 82.53 12/24/2023 07:08:17 -74.16,-108.04 82.52 3.02 12
35 12/24/2023 07:57:53 74.14, 59.55 97.47 12/24/2023 07:57:39 74.12, 59.55 97.45 1.56 14
36 12/24/2023 08:47:15 -74.10,-132.72 82.57 12/24/2023 08:47:01 -74.12,-132.79 82.55 3.02 14
37 12/24/2023 09:36:40 74.15, 34.81 97.48 12/24/2023 09:36:22 74.14, 34.91 97.47 3.23 18
38 12/24/2023 10:26:02 -74.12,-157.46 82.55 12/24/2023 10:25:44 -74.14,-157.43 82.53 2.77 18
39 12/24/2023 11:15:26 74.12, 10.20 97.45 12/24/2023 11:15:06 74.11, 10.16 97.44 1.63 20
40 12/24/2023 12:04:49 -74.14, 177.81 82.54 12/24/2023 12:04:28 -74.11, 177.82 82.56 2.88 21
41 12/24/2023 12:54:13 74.14, -14.54 97.46 12/24/2023 12:53:49 74.13, -14.48 97.46 1.82 24
42 12/24/2023 13:43:35 -74.10, 153.20 82.57 12/24/2023 13:43:11 -74.13, 153.19 82.54 3.17 24
43 12/24/2023 14:32:59 74.10, -39.15 97.43 12/24/2023 14:32:33 74.10, -39.23 97.43 2.62 26
44 12/24/2023 15:22:22 -74.12, 128.46 82.56 12/24/2023 15:21:55 -74.10, 128.43 82.58 2.48 27
45 12/24/2023 16:11:46 74.12, -63.88 97.45 12/24/2023 16:11:16 74.12, -63.87 97.44 0.44 30
46 12/24/2023 17:01:08 -74.14, 103.73 82.54 12/24/2023 17:00:37 -74.12, 103.80 82.56 2.89 31
47 12/24/2023 17:50:32 74.14, -88.62 97.46 12/24/2023 17:49:58 74.14, -88.51 97.46 3.37 34
48 12/24/2023 18:39:54 -74.10, 79.11 82.58 12/24/2023 18:39:21 -74.09, 79.04 82.59 2.82 33
49 12/24/2023 19:29:18 74.10,-113.23 97.43 12/24/2023 19:28:42 74.11,-113.26 97.43 0.93 36
50 12/24/2023 20:18:41 -74.12, 54.38 82.56 12/24/2023 20:18:04 -74.11, 54.41 82.57 1.72 37
51 12/24/2023 21:08:05 74.12,-137.97 97.44 12/24/2023 21:07:25 74.13,-137.90 97.45 2.16 40
52 12/24/2023 21:57:27 -74.09, 29.76 82.60 12/24/2023 21:56:48 -74.08, 29.65 82.61 3.67 39
53 12/24/2023 22:46:51 74.09,-162.58 97.41 12/24/2023 22:46:09 74.09,-162.65 97.41 2.27 42
54 12/24/2023 23:36:14 -74.11, 5.03 82.58 12/24/2023 23:35:31 -74.10, 5.02 82.59 1.16 43
55 12/25/2023 00:25:38 74.10, 172.69 97.42 12/25/2023 00:24:52 74.11, 172.71 97.43 1.25 46
56 12/25/2023 01:15:01 -74.12, -19.70 82.56 12/25/2023 01:14:14 -74.12, -19.62 82.57 2.65 47
57 12/25/2023 02:04:24 74.07, 148.07 97.39 12/25/2023 02:03:36 74.08, 147.96 97.40 3.60 48
58 12/25/2023 02:53:47 -74.09, -44.32 82.60 12/25/2023 02:52:58 -74.08, -44.37 82.60 1.82 49
59 12/25/2023 03:43:11 74.09, 123.34 97.40 12/25/2023 03:42:19 74.10, 123.32 97.42 1.40 52
60 12/25/2023 04:32:34 -74.11, -69.05 82.58 12/25/2023 04:31:41 -74.10, -69.01 82.59 1.34 53
61 12/25/2023 05:21:58 74.11, 98.60 97.42 12/25/2023 05:21:02 74.12, 98.68 97.44 2.98 56
62 12/25/2023 06:11:20 -74.07, -93.67 82.62 12/25/2023 06:10:25 -74.07, -93.77 82.62 2.95 55
63 12/25/2023 07:00:44 74.07, 73.99 97.38 12/25/2023 06:59:46 74.09, 73.93 97.40 2.38 58
64 12/25/2023 07:50:07 -74.09,-118.40 82.60 12/25/2023 07:49:08 -74.09,-118.40 82.60 0.05 59
65 12/25/2023 08:39:31 74.09, 49.25 97.40 12/25/2023 08:38:29 74.11, 49.29 97.42 2.28 62
66 12/25/2023 09:28:54 -74.11,-143.14 82.58 12/25/2023 09:27:51 -74.11,-143.04 82.58 3.02 63
67 12/25/2023 10:18:17 74.06, 24.64 97.37 12/25/2023 10:17:13 74.08, 24.54 97.39 3.55 64
68 12/25/2023 11:07:40 -74.08,-167.75 82.62 12/25/2023 11:06:35 -74.08,-167.79 82.62 1.23 65
69 12/25/2023 11:57:04 74.08, -0.10 97.38 12/25/2023 11:55:56 74.10, -0.10 97.40 2.18 68
70 12/25/2023 12:46:27 -74.09, 167.51 82.60 12/25/2023 12:45:18 -74.10, 167.57 82.60 1.86 69
71 12/25/2023 13:35:51 74.09, -24.84 97.40 12/25/2023 13:34:40 74.06, -24.85 97.37 3.49 71
72 12/25/2023 14:25:13 -74.06, 142.89 82.64 12/25/2023 14:24:02 -74.07, 142.82 82.63 2.48 71
73 12/25/2023 15:14:36 74.01, -49.33 97.31 12/25/2023 15:13:24 74.03, -49.61 97.34 8.72 72
74 12/25/2023 16:03:59 -74.03, 118.28 82.68 12/25/2023 16:02:46 -74.03, 118.06 82.67 6.65 73
75 12/25/2023 16:53:21 73.92, -73.83 97.22 12/25/2023 16:52:10 73.89, -74.59 97.20 23.63 71
76 12/25/2023 17:42:43 -73.89, 93.90 82.81 12/25/2023 17:41:32 -73.90, 93.08 82.80 25.19 71
77 12/25/2023 18:32:05 73.79, -98.22 97.08 12/25/2023 18:30:56 73.76, -99.57 97.06 42.19 69
78 12/25/2023 19:21:27 -73.76, 69.51 82.95 12/25/2023 19:20:18 -73.76, 68.10 82.94 43.76 69
79 12/25/2023 20:10:49 73.65,-122.60 96.94 12/25/2023 20:09:41 73.67,-124.43 96.97 57.20 68
80 12/25/2023 21:00:12 -73.67, 45.00 83.04 12/25/2023 20:59:04 -73.62, 43.13 83.08 58.91 68
81 12/25/2023 21:49:33 73.51,-147.00 96.80 12/25/2023 21:48:27 73.53,-149.40 96.84 75.85 66
82 12/25/2023 22:38:56 -73.53, 20.61 83.18 12/25/2023 22:37:49 -73.54, 18.27 83.16 73.72 67
83 12/25/2023 23:28:18 73.43,-171.51 96.71 12/25/2023 23:27:13 73.39,-174.37 96.70 90.89 65
84 12/26/2023 00:17:40 -73.40, -3.79 83.32 12/26/2023 00:16:35 -73.40, -6.69 83.30 92.31 65



Historial Predications of SNOs between AQUA and TERRA
